[[{"header":{"parameterUnit":"m.s-1","parameterCategory":1,"la1":30.2992,"la2":30.254,"lo1":-89.0895,"lo2":-89.0443,"dy":0.0025,"dx":0.0025,"nx":19,"ny":19,"refTime":"2026-04-12T21:00:00:Z","depth":0,"parameterNumber":2,"parameterNumberName":"U-component_of_WINDS"},"data":[0,0,0,-2.7082,-2.7085,-2.7218,-2.7219,-2.7385,-2.7386,0,0,0,0,0,0,0,0,0,0,0,-2.7037,-2.7038,-2.7082,-2.7085,-2.7218,-2.7219,-2.7385,-2.7386,0,0,0,0,0,0,0,0,0,0,0,-2.7037,-2.7038,-2.7039,-2.7085,-2.7218,-2.7219,-2.7384,-2.7286,0,0,0,0,0,0,0,0,0,0,-2.7157,-2.711,-2.7038,-2.7039,-2.7086,-2.7218,-2.7219,-2.7281,-2.7292,-2.7322,0,-2.7345,0,-2.7368,-2.7397,-2.7398,0,0,0,-2.7089,-2.7101,-2.7142,-2.7039,-2.7087,-2.7218,-2.7159,-2.7287,-2.7299,-2.7336,-2.7348,-2.7354,-2.7371,-2.7398,-2.7399,-2.7552,-2.7553,0,0,-2.7082,-2.7059,-2.7133,-2.7149,-2.7126,-2.7155,-2.7163,-2.7295,-2.7306,-2.7348,-2.7358,-2.7374,-2.7399,-2.74,-2.7552,-2.7553,0,0,0,-2.7058,-2.7054,-2.7091,-2.7142,-2.7167,-2.7159,-2.7168,-2.7301,-2.7315,-2.736,-2.7376,-2.74,-2.7402,-2.7551,-2.7552,-2.7553,0,0,0,-2.7054,-2.704,-2.7088,-2.7075,-2.7164,-2.7235,-2.7171,-2.7306,-2.7321,-2.7375,-2.74,-2.7403,-2.7551,-2.7552,-2.7552,-2.7556,0,0,0,-2.703,-2.7037,-2.7054,-2.7073,-2.713,-2.7233,-2.7255,-2.7309,-2.7331,-2.7398,-2.7404,-2.755,-2.7552,-2.7551,-2.7555,-2.7589,0,0,0,-2.6999,-2.7054,-2.7054,-2.7122,-2.7129,-2.7233,-2.7254,-2.7334,-2.7392,-2.7401,-2.7551,-2.7552,-2.755,-2.7554,-2.7587,-2.7611,-2.7619,0,0,-2.7056,-2.706,-2.7102,-2.7106,-2.7204,-2.7214,-2.7314,-2.739,-2.7419,-2.7507,-2.7511,-2.7552,-2.7555,-2.7588,-2.7678,-2.7684,0,0,0,-2.7112,-2.7142,-2.7173,-2.7226,-2.7285,-2.7336,-2.7399,-2.7428,-2.7503,-2.7458,-2.7576,-2.7578,-2.7599,-2.7611,-2.7616,-2.7635,-2.7558,-2.7557,-2.7557,-2.7157,-2.719,-2.7262,-2.7311,-2.7364,-2.7429,-2.7474,-2.7524,-2.7544,-2.7571,-2.7596,-2.7646,-2.766,-2.7664,-2.7683,-2.7614,-2.7614,-2.7614,-2.7614,-2.724,-2.7286,-2.7312,-2.7389,-2.7426,-2.7493,-2.756,-2.7572,-2.764,-2.763,-2.765,-2.7633,-2.767,-2.7688,-2.7615,-2.7615,-2.7615,-2.7614,-2.7614,-2.727,-2.7298,-2.7332,-2.7413,-2.7473,-2.7524,-2.7588,-2.762,-2.7651,-2.7671,-2.7701,-2.7701,-2.7703,-2.7684,-2.7684,-2.7684,-2.7684,-2.7684,-2.7684,-2.7286,-2.7324,-2.7373,-2.7442,-2.7481,-2.7537,-2.7606,-2.7646,-2.7699,-2.7717,-2.7718,-2.7734,-2.7668,-2.7649,-2.7687,-2.7687,-2.7686,-2.7686,-2.7686,-2.7352,-2.7343,-2.7418,-2.7457,-2.7542,-2.7599,-2.7641,-2.772,-2.7759,-2.779,-2.7804,-2.7751,-2.7758,-2.7754,-2.7738,-2.7797,-2.7797,-2.7797,-2.7797,-2.7375,-2.7383,-2.7467,-2.7528,-2.7592,-2.7637,-2.7724,-2.778,-2.7836,-2.7863,-2.786,-2.7843,-2.7838,-2.7848,-2.7842,-2.7828,-2.7908,-2.7908,-2.7909,-2.7417,-2.7433,-2.7498,-2.7551,-2.762,-2.768,-2.7762,-2.7833,-2.7896,-2.7914,-2.7884,-2.7879,-2.7853,-2.7843,-2.7855,-2.7845,-2.7819,0,0]},{"header":{"parameterUnit":"m.s-1","parameterCategory":1,"la1":30.2992,"la2":30.254,"lo1":-89.0895,"lo2":-89.0443,"dy":0.0025,"dx":0.0025,"nx":19,"ny":19,"refTime":"2026-04-12T21:00:00:Z","depth":0,"parameterNumber":3,"parameterNumberName":"V-component_of_WINDS"},"data":[0,0,0,3.7802,3.7801,3.7752,3.7752,3.7674,3.7673,0,0,0,0,0,0,0,0,0,0,0,3.7808,3.7807,3.7802,3.7801,3.7752,3.7752,3.7674,3.7673,0,0,0,0,0,0,0,0,0,0,0,3.7808,3.7807,3.7806,3.78,3.7752,3.7752,3.7674,3.7716,0,0,0,0,0,0,0,0,0,0,3.7766,3.7763,3.7807,3.7806,3.78,3.7752,3.7752,3.7719,3.7714,3.769,0,3.7667,0,3.7669,3.7667,3.7667,0,0,0,3.7806,3.7767,3.7762,3.7806,3.78,3.7752,3.7776,3.7716,3.771,3.7683,3.7666,3.7664,3.7668,3.7667,3.7666,3.7512,3.7511,0,0,3.7809,3.7794,3.7766,3.7758,3.7766,3.7777,3.7774,3.7713,3.7693,3.7666,3.7662,3.7667,3.7666,3.7665,3.7513,3.7512,0,0,0,3.7813,3.7795,3.7792,3.7761,3.7754,3.7776,3.7772,3.7695,3.7696,3.7661,3.7666,3.7665,3.7664,3.7514,3.7513,3.745,0,0,0,3.7815,3.7798,3.7793,3.7783,3.7755,3.7724,3.7756,3.77,3.7694,3.7666,3.7665,3.7663,3.7516,3.7514,3.7454,3.7422,0,0,0,3.7814,3.7798,3.7788,3.7783,3.7762,3.7726,3.7723,3.7699,3.7696,3.7667,3.7663,3.7516,3.7514,3.7458,3.7428,3.7378,0,0,0,3.7808,3.7731,3.7787,3.7703,3.7762,3.7688,3.7723,3.7668,3.7636,3.7665,3.7515,3.7513,3.7459,3.7432,3.7382,3.7332,3.731,0,0,3.7702,3.7718,3.767,3.7718,3.7631,3.7697,3.76,3.7583,3.7593,3.7538,3.7535,3.7453,3.7429,3.7379,3.7195,3.7178,0,0,0,3.7631,3.7596,3.7577,3.7546,3.7534,3.752,3.7521,3.7515,3.747,3.7562,3.7422,3.7408,3.7379,3.7356,3.7341,3.7317,3.7502,3.7502,3.7503,3.7458,3.7478,3.74,3.7415,3.7385,3.7388,3.7365,3.7358,3.7384,3.7351,3.7334,3.7221,3.7193,3.7182,3.7157,3.731,3.731,3.731,3.731,3.7305,3.7259,3.73,3.7239,3.726,3.7208,3.7209,3.723,3.7184,3.7234,3.721,3.7262,3.7163,3.7142,3.7305,3.7306,3.7307,3.7307,3.7307,3.7193,3.7175,3.7171,3.7132,3.7098,3.7115,3.7071,3.7091,3.711,3.7086,3.7071,3.7072,3.7075,3.7078,3.7077,3.7077,3.7077,3.7076,3.7076,3.7078,3.7077,3.7037,3.702,3.7005,3.6987,3.6991,3.6976,3.6964,3.6982,3.6982,3.7012,3.715,3.7184,3.707,3.7071,3.7072,3.7073,3.7073,3.6914,3.6955,3.6894,3.6879,3.6862,3.6828,3.6856,3.6824,3.6814,3.6792,3.6828,3.6927,3.6943,3.6955,3.6983,3.6824,3.6824,3.6824,3.6824,3.6819,3.6831,3.6774,3.6749,3.6726,3.6747,3.6677,3.668,3.669,3.6685,3.6712,3.6751,3.6762,3.6772,3.6788,3.6814,3.6616,3.6616,3.6615,3.6719,3.673,3.6667,3.6679,3.6668,3.6657,3.6593,3.6561,3.658,3.6607,3.6682,3.6691,3.6755,3.6775,3.6801,3.6826,3.6875,0,0]}]]